Weather History for Cartersville, GA

Change the Weather History Date:

Saturday, March 1, 2014

  Actual Average Record
Temperature  
Mean Temperature 51 °F 48 °F  
Max Temperature 60 °F 60 °F 73 °F (2004)
Min Temperature 42 °F 36 °F 16 °F (2002)
Degree Days  
Heating Degree Days 14 17  
Month to date heating degree days 14 17  
Since 1 July heating degree days 2808 2629  
Moisture  
Dew Point 34 °F    
Average Humidity 65    
Maximum Humidity 82    
Minimum Humidity 47    
Precipitation  
Precipitation 0.01 in 0.16 in 1.08 in (1950)
Month to date precipitation 0.01 0.16  
Year to date precipitation 5.73 9.66  
Sea Level Pressure  
Sea Level Pressure 30.21 in    
Wind  
Wind Speed 4 mph (ESE)    
Max Wind Speed 10 mph    
Max Gust Speed 17 mph    
Visibility 10 miles    
Events      
T = Trace of Precipitation, MM = Missing Value Source: NWS Daily Summary

Daily Weather History Graph

Daily Weather History Graph

Search for Another Location

Airport:

Trip Planner

Search our weather history database for the weather conditions in past years. The results will help you decide how hot, cold, wet, or windy it might be!

Date:

Astronomy

Mar. 01, 2014 Rise Set
Actual Time 7:08 AM EST 6:35 PM EST
Civil Twilight 6:43 AM EST 7:00 PM EST
Nautical Twilight 6:14 AM EST 7:29 PM EST
Astronomical Twilight 5:45 AM EST 7:58 PM EST
Moon 7:03 AM EST (3/1) 7:18 PM EST (3/1)
Length of Visible Light 12h 17m
Length of Day
11h 27m
New Moon, 0% of the Moon is Illuminated
Mar 1
New Moon
Mar 8
First Quarter
Mar 16
Full
Mar 23
Last Quarter
Mar 30
New

Hourly Weather History & Observations

Time (EST) Temp. Windchill Dew Point Humidity Pressure Visibility Wind Dir Wind Speed Gust Speed Precip Events Conditions
12:53 AM 45.0 °F - 32.0 °F 60% 30.16 in 10.0 mi Calm Calm - 0.01 in   Overcast
1:53 AM 45.0 °F 41.8 °F 28.9 °F 53% 30.16 in 10.0 mi East 5.8 mph - N/A   Overcast
2:53 AM 45.0 °F 42.6 °F 27.0 °F 49% 30.16 in 10.0 mi Variable 4.6 mph - N/A   Overcast
3:53 AM 44.1 °F 40.1 °F 27.0 °F 51% 30.17 in 10.0 mi ESE 6.9 mph - N/A   Overcast
4:53 AM 44.1 °F 40.1 °F 27.0 °F 51% 30.18 in 10.0 mi East 6.9 mph - N/A   Overcast
5:53 AM 43.0 °F 39.5 °F 27.0 °F 53% 30.20 in 10.0 mi Variable 5.8 mph - N/A   Overcast
6:53 AM 42.1 °F 37.7 °F 27.0 °F 55% 30.22 in 10.0 mi East 6.9 mph - N/A   Mostly Cloudy
7:53 AM 43.0 °F 38.8 °F 28.0 °F 56% 30.23 in 10.0 mi East 6.9 mph - N/A   Overcast
8:53 AM 45.0 °F 42.6 °F 30.9 °F 58% 30.27 in 10.0 mi Variable 4.6 mph - N/A   Overcast
9:53 AM 46.0 °F 43.9 °F 34.0 °F 63% 30.28 in 10.0 mi Variable 4.6 mph - N/A   Overcast
10:53 AM 46.9 °F - 34.0 °F 61% 30.28 in 10.0 mi ESE 6.9 mph - N/A   Overcast
11:53 AM 48.9 °F - 35.1 °F 59% 30.28 in 10.0 mi Variable 5.8 mph - N/A   Overcast
12:53 PM 51.1 °F - 35.1 °F 54% 30.25 in 10.0 mi East 6.9 mph - N/A   Overcast
1:53 PM 54.0 °F - 35.1 °F 49% 30.21 in 10.0 mi ESE 5.8 mph - N/A   Overcast
2:53 PM 55.9 °F - 36.0 °F 47% 30.19 in 10.0 mi SE 4.6 mph - N/A   Overcast
3:53 PM 57.9 °F - 37.9 °F 47% 30.18 in 10.0 mi SSE 5.8 mph - N/A   Overcast
4:53 PM 57.9 °F - 37.9 °F 47% 30.17 in 10.0 mi Variable 3.5 mph - N/A   Scattered Clouds
5:53 PM 57.9 °F - 37.9 °F 47% 30.19 in 10.0 mi Calm Calm - N/A   Mostly Cloudy
6:53 PM 52.0 °F - 41.0 °F 66% 30.20 in 10.0 mi Calm Calm - N/A   Overcast
7:53 PM 52.0 °F - 39.0 °F 61% 30.21 in 10.0 mi Calm Calm - N/A   Overcast
8:53 PM 51.1 °F - 37.0 °F 59% 30.21 in 10.0 mi SE 4.6 mph - N/A   Mostly Cloudy
9:53 PM 46.9 °F - 37.0 °F 68% 30.23 in 10.0 mi East 3.5 mph - N/A   Partly Cloudy
10:53 PM 43.0 °F 41.3 °F 37.0 °F 80% 30.22 in 10.0 mi ESE 3.5 mph - N/A   Clear
11:53 PM 43.0 °F - 36.0 °F 76% 30.21 in 10.0 mi Calm Calm - N/A   Clear